User: anonymous   Login
Location: Theydon Bois
(51.6750°N, 0.1050°E)
Time: 02:35:53
(UTC+00:00)
Language:

Cosmos 2366 rocket - Orbit

View from above orbital plane
View from above orbital plane
View from above satellite
View from above satellite

Ground track
Ground track

The orbit data is extracted from the following two-line orbital elements,

1 25893U 99045B   17346.88853951  .00000018  00000-0  26767-5 0  9994
2 25893  82.9279 251.4661 0027892 316.7857 113.0880 13.76514434919239
Epoch (UTC): 12 December 2017 21:19:29
Eccentricity: 0.0027892
inclination: 82.9279°
perigee height: 956 km
apogee height: 997 km
right ascension of ascending node: 251.4661°
argument of perigee: 316.7857°
revolutions per day: 13.76514434
mean anomaly at epoch: 113.0880°
orbit number at epoch: 91923

The dashed part of the orbit path shows where the satellite is in the earth's shadow,  

DLR